Home > Weather > Fullerton > Past weeks

Flag for USA Weather for the Past 2 Weeks in Fullerton, California, USA

Now
60 °F

Low clouds.


Feels Like: 60 °F
Forecast: 57 / 79 °F
Wind: 3 mph from Southeast

Location: Fullerton Municipal Airport

Current Time: May 3, 2016 at 7:45:39 AM

Latest Report: May 3, 2016 at 6:53 AM


Visibility: 6 mi

Pressure: 29.96 "Hg

Humidity: 83%

Dew Point: 55 °F

Location of FullertonLocation

Historic Weather in Fullerton — Graph

°F

Fullerton Temperature Yesterday

Maximum temperature yesterday: 81 °F (at 1:53 PM)
Minimum temperature yesterday: 57 °F (at 4:53 AM)
Average temperature yesterday: 67 °F

High & Low Weather Summary for the Past Weeks

 TemperatureHumidityPressure
High91 °F (Apr 19, 2:53 PM)90% (Apr 30, 7:04 AM)30.05 "Hg (Apr 30, 7:04 AM)
Low52 °F (Apr 26, 4:53 AM)7% (Apr 18, 1:53 PM)29.73 "Hg (Apr 27, 11:53 PM)
Average66 °F52%29.91 "Hg
* Reported Apr 18 6:53 AM — May 3 6:04 AM, Fullerton, Weather by CustomWeather, © 2016

Note: Actual official high and low records may vary slightly from our data, if they occured in-between our weather recording intervals... More about our weather records

Advertising

Fullerton Weather History for the Previous 24 Hours

Scroll right to see more
 ConditionsComfort  
Time TempWeatherWind HumidityBarometerVisibility
6:04 AM
Tue, May 3
59 °FPartly cloudy.3 mph84%29.95 "Hg9 mi
4:53 AM59 °FClear.No wind84%29.94 "Hg10 mi
3:53 AM59 °FClear.No wind84%29.94 "Hg10 mi
2:53 AM60 °FClear.No wind80%29.94 "Hg10 mi
1:53 AM60 °FClear.No wind80%29.96 "Hg10 mi
12:53 AM61 °FClear.No wind81%29.97 "Hg10 mi
11:53 PM
Mon, May 2
62 °FClear.5 mph78%29.98 "Hg10 mi
10:53 PM63 °FClear.No wind70%29.98 "Hg10 mi
9:53 PM63 °FClear.No wind70%29.98 "Hg10 mi
8:53 PM65 °FClear.5 mph66%29.96 "Hg10 mi
7:53 PM67 °FSunny.5 mph59%29.94 "Hg10 mi
6:53 PM70 °FSunny.5 mph53%29.93 "Hg10 mi
5:53 PM73 °FSunny.5 mph46%29.92 "Hg10 mi
4:53 PM75 °FSunny.10 mph45%29.92 "Hg10 mi
3:53 PM78 °FSunny.8 mph40%29.93 "Hg10 mi
2:53 PM79 °FSunny.6 mph39%29.94 "Hg10 mi
1:53 PM81 °FSunny.8 mph37%29.95 "Hg10 mi
12:53 PM78 °FSunny.9 mph43%29.97 "Hg9 mi
11:53 AM75 °FSunny.5 mph45%29.99 "Hg10 mi
10:53 AM72 °FSunny.3 mph49%30.01 "Hg9 mi
9:53 AM67 °FSunny.No wind61%30.02 "Hg8 mi
8:53 AM64 °FSunny.No wind68%30.03 "Hg8 mi
8:00 AM61 °FOvercast.No wind75%30.03 "Hg8 mi
7:04 AM59 °FSunny.No wind78%30.01 "Hg8 mi
Weather by CustomWeather, © 2016

See weather overviewHow to use our weather pages